Weather History for KGPM - January, 2014

Change the Weather History Date:

Friday, January 17, 2014

  Actual Average (KDFW) Record (KDFW)
Temperature  
Mean Temperature 46 °F 46 °F  
Max Temperature 53 °F 56 °F 79 °F (1952)
Min Temperature 39 °F 35 °F 2 °F (1930)
Degree Days  
Heating Degree Days 19 19  
Month to date heating degree days 334  
Since 1 July heating degree days 1246  
Cooling Degree Days 0 0  
Month to date cooling degree days 0  
Year to date cooling degree days 0  
Moisture  
Dew Point 12 °F    
Average Humidity 25    
Maximum Humidity 39    
Minimum Humidity 15    
Precipitation  
Precipitation 0.00 in 0.07 in 0.59 in (1995)
Month to date precipitation 1.07  
Year to date precipitation 1.07  
Snow  
Snow 0.00 in 0.00 in 0.70 in (1966)
Month to date snowfall 0.1  
Since 1 July snowfall 0.4  
Snow Depth -    
Sea Level Pressure  
Sea Level Pressure 30.28 in    
Wind  
Wind Speed 7 mph (WNW)    
Max Wind Speed 15 mph    
Max Gust Speed 24 mph    
Visibility 9 miles    
Events      
T = Trace of Precipitation, MM = Missing Value Source: NWS Daily Summary

Daily Weather History Graph

Daily Weather History Graph

Search for Another Location

Airport or City:

Trip Planner

Search our weather history database for the weather conditions in past years. The results will help you decide how hot, cold, wet, or windy it might be!

Date:

Astronomy

Jan. 17, 2014 Rise Set
Actual Time 7:30 AM CST 5:46 PM CST
Civil Twilight 7:03 AM CST 6:13 PM CST
Nautical Twilight 6:33 AM CST 6:43 PM CST
Astronomical Twilight 6:03 AM CST 7:13 PM CST
Moon 7:26 PM CST (1/17) 8:05 AM CST (1/17)
Length of Visible Light 11h 10m
Length of Day
10h 16m
Full, 98% of the Moon is Illuminated
Jan 17
Full
Jan 23
Last Quarter
Jan 30
New
Feb 6
First Quarter
Feb 14
Full

Hourly Weather History & Observations

Time (CST) Temp. Windchill Dew Point Humidity Pressure Visibility Wind Dir Wind Speed Gust Speed Precip Events Conditions
12:15 AM 51.8 °F - 8.6 °F 18% 30.24 in 10.0 mi NW 6.9 mph - N/A   Clear
12:35 AM 51.8 °F - 8.6 °F 18% 30.24 in 10.0 mi NW 5.8 mph - N/A   Clear
12:55 AM 50.0 °F - 8.6 °F 19% 30.24 in 10.0 mi NW 5.8 mph - N/A   Clear
1:15 AM 51.8 °F - 6.8 °F 16% 30.24 in 10.0 mi NNW 10.4 mph 18.4 mph N/A   Clear
1:35 AM 50.0 °F - 5.0 °F 16% 30.24 in 10.0 mi NW 9.2 mph - N/A   Clear
1:55 AM 50.0 °F - 6.8 °F 17% 30.25 in 10.0 mi NW 5.8 mph - N/A   Clear
2:15 AM 48.2 °F - 10.4 °F 22% 30.25 in 10.0 mi WNW 5.8 mph - N/A   Clear
2:35 AM 50.0 °F - 8.6 °F 19% 30.26 in 7.0 mi WNW 4.6 mph - N/A   Clear
2:55 AM 48.2 °F - 10.4 °F 22% 30.26 in 7.0 mi West 5.8 mph - N/A   Clear
3:15 AM 48.2 °F - 10.4 °F 22% 30.27 in 7.0 mi WNW 4.6 mph - N/A   Clear
3:35 AM 48.2 °F - 12.2 °F 24% 30.27 in 7.0 mi WNW 3.5 mph - N/A   Clear
3:55 AM 48.2 °F - 10.4 °F 22% 30.27 in 7.0 mi WNW 4.6 mph - N/A   Clear
4:15 AM 48.2 °F - 10.4 °F 22% 30.28 in 7.0 mi WNW 4.6 mph - N/A   Clear
4:35 AM 48.2 °F - 12.2 °F 24% 30.28 in 7.0 mi NW 5.8 mph - N/A   Clear
4:55 AM 48.2 °F - 12.2 °F 24% 30.29 in 7.0 mi NW 4.6 mph - N/A   Clear
5:15 AM 46.4 °F 44.3 °F 14.0 °F 27% 30.29 in 7.0 mi NNW 4.6 mph - N/A   Clear
5:35 AM 46.4 °F 41.5 °F 12.2 °F 25% 30.30 in 7.0 mi North 10.4 mph - N/A   Clear
5:55 AM 46.4 °F 40.1 °F 14.0 °F 27% 30.31 in 10.0 mi NNE 15.0 mph 24.2 mph N/A   Clear
7:50 AM 42.8 °F 37.5 °F 14.0 °F 31% 30.35 in 10.0 mi North 9.2 mph - N/A   Clear
8:50 AM 44.6 °F 38.4 °F 12.2 °F 27% 30.37 in 10.0 mi NNW 12.7 mph 18.4 mph N/A   Clear
9:50 AM 46.4 °F 41.1 °F 10.4 °F 23% 30.40 in 10.0 mi NNW 11.5 mph 24.2 mph N/A   Clear
10:50 AM 48.2 °F - 10.4 °F 22% 30.40 in 10.0 mi NNW 9.2 mph - N/A   Clear
11:50 AM 50.0 °F - 8.6 °F 19% 30.39 in 10.0 mi NW 6.9 mph 16.1 mph N/A   Clear
12:50 PM 50.0 °F - 6.8 °F 17% 30.35 in 10.0 mi NNW 9.2 mph 18.4 mph N/A   Clear
1:50 PM 50.0 °F - 6.8 °F 17% 30.31 in 10.0 mi NNW 9.2 mph - N/A   Clear
2:50 PM 53.6 °F - 6.8 °F 15% 30.30 in 10.0 mi NNW 6.9 mph - N/A   Clear
3:50 PM 53.6 °F - 8.6 °F 16% 30.29 in 10.0 mi NNW 4.6 mph - N/A   Clear
4:50 PM 53.6 °F - 8.6 °F 16% 30.28 in 10.0 mi West 5.8 mph - N/A   Clear
5:50 PM 53.6 °F - 8.6 °F 16% 30.29 in 10.0 mi West 9.2 mph - N/A   Clear
8:15 PM 44.6 °F - 17.6 °F 34% 30.28 in 10.0 mi Calm Calm - N/A   Clear
8:35 PM 44.6 °F 43.1 °F 17.6 °F 34% 30.28 in 10.0 mi SSW 3.5 mph - N/A   Clear
8:55 PM 42.8 °F 40.1 °F 17.6 °F 36% 30.28 in 10.0 mi SW 4.6 mph - N/A   Clear
9:15 PM 42.8 °F 41.1 °F 17.6 °F 36% 30.28 in 10.0 mi SW 3.5 mph - N/A   Clear
9:35 PM 42.8 °F - 17.6 °F 36% 30.27 in 10.0 mi Calm Calm - N/A   Clear
9:55 PM 41.0 °F 38.0 °F 17.6 °F 39% 30.26 in 10.0 mi South 4.6 mph - N/A   Clear
10:15 PM 41.0 °F 38.0 °F 17.6 °F 39% 30.26 in 10.0 mi SSW 4.6 mph - N/A   Clear
10:35 PM 41.0 °F 37.1 °F 15.8 °F 36% 30.26 in 10.0 mi SSW 5.8 mph - N/A   Clear
10:55 PM 41.0 °F 38.0 °F 15.8 °F 36% 30.25 in 10.0 mi SSW 4.6 mph - N/A   Clear
11:15 PM 41.0 °F 37.1 °F 15.8 °F 36% 30.24 in 10.0 mi SSW 5.8 mph - N/A   Clear
11:35 PM 39.2 °F 34.2 °F 15.8 °F 39% 30.24 in 10.0 mi SSW 6.9 mph - N/A   Clear
11:55 PM 41.0 °F 35.8 °F 15.8 °F 36% 30.23 in 10.0 mi SSW 8.1 mph - N/A   Clear